Voltar ao catálogo

STARLINK-4594

AtivoComunicaçõesVLEO
NORAD 53638·PAYLOAD·🇺🇸 United States

Lançado Aug 28, 2022 de Cape Canaveral Space Force Station

Loading…

Próximas Passagens (próximas 24 horas)

TLE

AtualizadoSource: CelesTrak SupGP

Época: Sep 14, 2026, 22:17 UTC

1 53638C 22104BC  26257.92895833  .00039290  00000+0  11244-2 0  2576
2 53638  53.1587  87.7107 0001336  78.9427 266.3010 15.35370654    14

Acompanhe STARLINK-4594 em tempo real com AllMySat

Download on the App Store